Regional Weather Roundup
Issued by NWS

Home | Current Version | Previous Version | Graphics & Text | Print | Product List | Glossary On
Versions: 1 2 3 4 5 6 7 8 9 10 11 12 13 14 15 16 17 18 19 20 21 22 23 24 25 26 27 28 29 30 31 32 33 34 35 36 37 38 39 40 41 42 43 44 45 46 47 48 49 50
000
ASUS43 KFSD 272202
RWRSD

WEATHER ROUNDUP FOR SOUTH DAKOTA
NATIONAL WEATHER SERVICE SIOUX FALLS SD
400 PM CST FRI FEB 27 2015

NOTE: "FAIR" INDICATES FEW OR NO CLOUDS BELOW 12,000 FEET WITH NO
SIGNIFICANT WEATHER AND/OR OBSTRUCTIONS TO VISIBILITY.


SDZ001>005-009-010-012>017-272300-
NORTHWEST AND NORTH CENTRAL SOUTH DAKOTA

CITY           SKY/WX    TMP DP  RH WIND       PRES   REMARKS
BUFFALO          N/A     26  10  50 S18       29.94S WCI  13
FAITH            N/A     27   1  32 S20       30.09F WCI  13
MOBRIDGE       SUNNY     21   6  52 S16G25    30.23F WCI   7
$$

SDZ012>016-024>037-041>051-057-063-072>074-272300-
SOUTHWEST AND SOUTH CENTRAL SOUTH DAKOTA

CITY           SKY/WX    TMP DP  RH WIND       PRES   REMARKS
RAPID CTY ARPT CLOUDY    23  12  62 S22       30.03F WCI   8
PIERRE         SUNNY     27  -6  23 SE17      30.24F WCI  14
CUSTER         LGT SNOW  11   4  73 S8G21     29.88R WCI  -1
ELLSWORTH AFB  CLOUDY    23  11  59 S24G31    30.00F WCI   7
PHILIP         PTSUNNY   30   5  34 S15G21    30.15F WCI  19
PINE RIDGE     CLOUDY    23   6  48 S17G25    30.08S WCI   9
WINNER         FAIR      28  -5  23 S17       30.26F WCI  16
$$

SDZ004>011-016>023-039-040-272300-
NORTHEAST SOUTH DAKOTA

CITY           SKY/WX    TMP DP  RH WIND       PRES   REMARKS
ABERDEEN       SUNNY     15   3  59 S10       30.39F WCI   2
WATERTOWN      SUNNY     11  -1  58 S8        30.38F WCI  -1
SISSETON         N/A     15  -1  49 W6        30.41F WCI   6
$$

SDZ017-020-022-023-036>040-048>070-272300-
SOUTHEAST SOUTH DAKOTA

CITY           SKY/WX    TMP DP  RH WIND       PRES   REMARKS
SIOUX FALLS    SUNNY     14   2  58 S7        30.44F WCI   4
HURON          SUNNY     18   4  54 SE10      30.39F WCI   6
MITCHELL       SUNNY     24  -2  32 S13       30.40F WCI  12
YANKTON        SUNNY     21   1  42 S10       30.45S WCI  10
$$

ABBREVIATIONS USED IN REMARKS
   TC - TEMPERATURE IN CELSIUS
  WCI - WIND CHILL INDEX
   HX - HEAT INDEX
  VSB - VISIBILITY




USA.gov is the U.S. government's official web portal to all federal, state and local government web resources and services.